Flag Weather past 2 weeks in Zittau, Saxony, Germany

Now
38 °F

Overcast.


Feels Like: 35 °F
Forecast: 32 / 44 °F
Wind: 5 mph from Southeast

Location: Liberec

Current Time: Nov 22, 2014 at 10:34:53 PM

Latest Report: Nov 22, 2014 at 9:00 PM


Visibility: 11 mi

Pressure: 30.32 "Hg

Humidity: 77%

Dew point: 32 °F

Location of ZittauLocation

Historic Weather in Zittau — Graph

°F

Zittau temperature yesterday

Maximum temperature yesterday: 40 °F (at 1:00 PM)
Minimum temperature yesterday: 38 °F (at 2:00 AM)
Average temperature yesterday: 39 °F

Past Weeks' High & Low Weather Summary

 TemperatureHumidityPressure
High57 °F (Nov 12, 3:00 PM)100% (Nov 9, 12:00 AM)30.35 "Hg (Nov 9, 12:00 AM)
Low31 °F (Nov 9, 6:00 AM)65% (Nov 8, 1:00 PM)29.56 "Hg (Nov 16, 6:00 AM)
Average46 °F88%29.95 "Hg
* Reported Nov 7 9:00 PM — Nov 22 9:00 PM, Zittau, Weather by CustomWeather, © 2014

Note: Actual official high and low records may vary slightly from our data, if they occured in-between our weather recording intervals... More about our weather records

Advertising

Zittau weather history for previous 24 hours

 ConditionsComfort  
Time TempWeatherWind HumidityBarometerVisibility
9:00 PM
Nov 22
38 °FOvercast.5 mph77%30.32 "Hg11 mi
8:00 PM38 °FOvercast.3 mph78%30.32 "Hg9 mi
7:00 PM38 °FOvercast.3 mph78%30.31 "Hg11 mi
6:00 PM38 °FOvercast.5 mph79%30.31 "Hg11 mi
5:00 PM39 °FChilly.5 mph78%30.31 "Hg9 mi
4:00 PM39 °FOvercast.5 mph75%30.30 "Hg12 mi
3:00 PM40 °FPartly sunny.5 mph73%30.29 "Hg17 mi
2:00 PM40 °FOvercast.5 mph71%30.29 "Hg17 mi
1:00 PM39 °FOvercast.5 mph71%30.29 "Hg19 mi
12:00 PM39 °FOvercast.6 mph72%30.31 "Hg19 mi
11:00 AM39 °FOvercast.3 mph76%30.32 "Hg19 mi
10:00 AM38 °FOvercast.5 mph77%30.32 "Hg17 mi
9:00 AM38 °FOvercast.5 mph77%30.31 "Hg17 mi
8:00 AM38 °FOvercast.5 mph79%30.30 "Hg14 mi
7:00 AM38 °FOvercast.2 mph78%30.29 "Hg14 mi
6:00 AM38 °FChilly.2 mph77%30.28 "Hg12 mi
5:00 AM38 °FChilly.2 mph77%30.28 "Hg12 mi
4:00 AM38 °FChilly.2 mph80%30.29 "Hg9 mi
3:00 AM38 °FChilly.2 mph79%30.29 "Hg12 mi
2:00 AM38 °FChilly.2 mph79%30.30 "Hg12 mi
1:00 AM38 °FChilly.2 mph79%30.30 "Hg12 mi
12:00 AM39 °FChilly.2 mph80%30.30 "Hg12 mi
11:00 PM
Nov 21
39 °FChilly.2 mph77%30.31 "Hg12 mi
10:00 PM39 °FChilly.1 mph82%30.31 "Hg9 mi
Weather by CustomWeather, © 2014

See weather overviewHow to use our weather pages